Gilze-Rijen, Netherlands

1:36 AM CEST on March 27, 2017 (GMT +0200)
Gilze-Rijen Air Base

Weather History for EHGR - December, 2013

Change the Weather History Date:

Friday, December 13, 2013

  Actual Average Record
Temperature  
Mean Temperature 36 °F -  
Max Temperature 41 °F 41 °F 57 °F (1998)
Min Temperature 32 °F 32 °F 19 °F (2010)
Degree Days  
Heating Degree Days 28    
Moisture  
Dew Point 33 °F    
Average Humidity 94    
Maximum Humidity 100    
Minimum Humidity 81    
Precipitation  
Precipitation 0.00 in - - ()
Sea Level Pressure  
Sea Level Pressure 30.21 in    
Wind  
Wind Speed 7 mph ()    
Max Wind Speed 13 mph    
Max Gust Speed -    
Visibility 2.8 miles    
Events Fog    
Averages and records for this station are not official NWS values.
T = Trace of Precipitation, MM = Missing Value Source: Averaged Metar Reports

Daily Weather History Graph

Daily Weather History Graph

Search for Another Location

Airport or City:

Trip Planner

Search our weather history database for the weather conditions in past years. The results will help you decide how hot, cold, wet, or windy it might be!

Date:

Astronomy

Dec. 13, 2013 Rise Set
Actual Time 8:38 AM CET 4:30 PM CET
Civil Twilight 7:57 AM CET 5:11 PM CET
Nautical Twilight 7:14 AM CET 5:54 PM CET
Astronomical Twilight 6:34 AM CET 6:34 PM CET
Moon 2:22 PM CET (12/13) 4:24 AM CET (12/13)
Length of Visible Light 9h 13m
Length of Day
7h 52m
Waxing Gibbous, 86% of the Moon is Illuminated
Dec 13
Waxing Gibbous
Dec 17
Full
Dec 25
Last Quarter
Jan 1
New
Jan 8
First Quarter

Hourly Weather History & Observations

Time (CET) Temp. Windchill Dew Point Humidity Pressure Visibility Wind Dir Wind Speed Gust Speed Precip Events Conditions
12:03 AM 32.0 °F 25.6 °F 30.2 °F 93% 30.27 in - SSW 6.9 mph - N/A   Mostly Cloudy
12:14 AM 32.0 °F 24.8 °F 30.2 °F 93% 30.27 in 1.6 mi SSW 8.1 mph - N/A   Overcast
12:18 AM 32.0 °F 24.8 °F 32.0 °F 100% 30.27 in 0.8 mi SW 8.1 mph - N/A   Overcast
12:25 AM 32.0 °F 24.8 °F 32.0 °F 100% 30.27 in 0.6 mi SW 8.1 mph - N/A   Mist
12:29 AM 32.0 °F 24.8 °F 32.0 °F 100% 30.27 in 0.4 mi SSW 8.1 mph - N/A Fog Light Freezing Fog
12:55 AM 32.0 °F 24.8 °F 32.0 °F 100% 30.27 in 0.2 mi SSW 8.1 mph - N/A Fog Light Freezing Fog
1:25 AM 32.0 °F 24.8 °F 32.0 °F 100% 30.27 in 0.2 mi SW 8.1 mph - N/A Fog Light Freezing Fog
1:55 AM 32.0 °F 24.2 °F 32.0 °F 100% 30.27 in 0.2 mi SW 9.2 mph - N/A Fog Light Freezing Fog
2:25 AM 32.0 °F 24.8 °F 32.0 °F 100% 30.27 in 0.2 mi SSW 8.1 mph - N/A Fog Fog
2:55 AM 32.0 °F 25.6 °F 32.0 °F 100% 30.27 in 0.2 mi SSW 6.9 mph - N/A Fog Fog
3:25 AM 33.8 °F 27.0 °F 33.8 °F 100% 30.27 in 0.2 mi SSW 8.1 mph - N/A Fog Fog
3:55 AM 33.8 °F 26.4 °F 33.8 °F 100% 30.24 in - SSW 9.2 mph - N/A Fog Fog
4:05 AM 33.8 °F 26.4 °F 33.8 °F 100% 30.24 in 0.6 mi SSW 9.2 mph - N/A   Overcast
4:18 AM 33.8 °F 25.8 °F 33.8 °F 100% 30.24 in 1.0 mi SSW 10.4 mph - N/A   Overcast
4:25 AM 33.8 °F 27.0 °F 33.8 °F 100% 30.24 in 1.1 mi SSW 8.1 mph - N/A   Overcast
4:29 AM 33.8 °F 27.0 °F 33.8 °F 100% 30.24 in 1.1 mi SSW 8.1 mph - N/A   Overcast
4:55 AM 33.8 °F 29.6 °F 33.8 °F 100% 30.24 in 1.3 mi SSW 4.6 mph - N/A   Overcast
5:21 AM 33.8 °F 27.0 °F 32.0 °F 93% 30.24 in 1.3 mi SSW 8.1 mph - N/A   Overcast
5:25 AM 33.8 °F 26.4 °F 32.0 °F 93% 30.24 in 1.2 mi SSW 9.2 mph - N/A   Overcast
5:39 AM 32.0 °F 24.2 °F 32.0 °F 100% 30.24 in 0.9 mi SSW 9.2 mph - N/A   Overcast
5:46 AM 32.0 °F 24.2 °F 32.0 °F 100% 30.24 in 0.8 mi SSW 9.2 mph - N/A   Overcast
5:55 AM 32.0 °F 24.2 °F 32.0 °F 100% 30.24 in 0.7 mi SSW 9.2 mph - N/A   Overcast
5:59 AM 32.0 °F 24.8 °F 32.0 °F 100% 30.24 in 0.6 mi SSW 8.1 mph - N/A   Mist
6:09 AM 32.0 °F 25.6 °F 32.0 °F 100% 30.24 in 0.4 mi SSW 6.9 mph - N/A Fog Fog
6:25 AM 32.0 °F 24.8 °F 32.0 °F 100% 30.24 in 0.4 mi SSW 8.1 mph - N/A Fog Fog
6:47 AM 32.0 °F 24.2 °F 32.0 °F 100% 30.24 in 0.5 mi SSW 9.2 mph - N/A Fog Light Freezing Fog
6:55 AM 32.0 °F 24.2 °F 32.0 °F 100% 30.24 in 0.5 mi SSW 9.2 mph - N/A Fog Light Freezing Fog
7:08 AM 32.0 °F 24.8 °F 32.0 °F 100% 30.24 in 0.6 mi SSW 8.1 mph - N/A Fog Light Freezing Fog
7:25 AM 32.0 °F 26.4 °F 32.0 °F 100% 30.24 in 0.6 mi SSW 5.8 mph - N/A Fog Light Freezing Fog
7:30 AM 32.0 °F 26.4 °F 32.0 °F 100% 30.24 in 0.7 mi SSW 5.8 mph - N/A   Overcast
7:47 AM 32.0 °F 26.4 °F 32.0 °F 100% 30.24 in 1.1 mi SSW 5.8 mph - N/A   Overcast
7:51 AM 32.0 °F 25.6 °F 32.0 °F 100% 30.24 in 1.1 mi SSW 6.9 mph - N/A   Overcast
7:55 AM 32.0 °F 25.6 °F 32.0 °F 100% 30.24 in 1.2 mi South 6.9 mph - N/A   Overcast
8:20 AM 32.0 °F 24.8 °F 32.0 °F 100% 30.24 in 1.1 mi SSW 8.1 mph - N/A   Overcast
8:25 AM 32.0 °F 24.8 °F 32.0 °F 100% 30.24 in 0.9 mi SSW 8.1 mph - N/A   Overcast
8:40 AM 32.0 °F 25.6 °F 32.0 °F 100% 30.24 in 0.8 mi SSW 6.9 mph - N/A   Overcast
8:55 AM 32.0 °F 25.6 °F 32.0 °F 100% 30.24 in 0.9 mi SSW 6.9 mph - N/A   Overcast
9:11 AM 32.0 °F 26.4 °F 30.2 °F 93% 30.24 in 0.8 mi SSW 5.8 mph - N/A   Scattered Clouds
9:25 AM 32.0 °F 26.4 °F 30.2 °F 93% 30.24 in 0.9 mi SSW 5.8 mph - N/A   Mostly Cloudy
9:29 AM 32.0 °F 26.4 °F 30.2 °F 93% 30.24 in 1.1 mi SSW 5.8 mph - N/A   Scattered Clouds
9:42 AM 32.0 °F 27.5 °F 30.2 °F 93% 30.24 in 1.3 mi SSW 4.6 mph - N/A   Mist
9:49 AM 32.0 °F 27.5 °F 30.2 °F 93% 30.24 in 1.4 mi SSW 4.6 mph - N/A   Partly Cloudy
9:55 AM 32.0 °F 27.5 °F 30.2 °F 93% 30.24 in 1.5 mi SSW 4.6 mph - N/A   Partly Cloudy
10:25 AM 33.8 °F 29.6 °F 32.0 °F 93% 30.24 in - South 4.6 mph - N/A   Partly Cloudy
10:41 AM 33.8 °F 28.6 °F 32.0 °F 93% 30.24 in 2.2 mi South 5.8 mph - N/A   Scattered Clouds
10:46 AM 33.8 °F 28.6 °F 32.0 °F 93% 30.24 in - South 5.8 mph - N/A   Mostly Cloudy
10:55 AM 33.8 °F 28.6 °F 32.0 °F 93% 30.24 in - South 5.8 mph - N/A   Mostly Cloudy
11:08 AM 35.6 °F 29.9 °F 33.8 °F 93% 30.24 in - South 6.9 mph - N/A   Mostly Cloudy
11:25 AM 35.6 °F 29.2 °F 33.8 °F 93% 30.24 in 3.1 mi South 8.1 mph - N/A   Mostly Cloudy
11:38 AM 37.4 °F 32.1 °F 33.8 °F 87% 30.24 in 3.1 mi SSW 6.9 mph - N/A   Mist
11:55 AM 37.4 °F 31.4 °F 33.8 °F 87% 30.21 in 3.7 mi SSW 8.1 mph - N/A   Mist
12:25 PM 39.2 °F 32.5 °F 35.6 °F 87% 30.21 in 4.3 mi South 10.4 mph - N/A   Mostly Cloudy
12:29 PM 39.2 °F 32.5 °F 35.6 °F 87% 30.21 in 4.3 mi South 10.4 mph - N/A   Mist
12:47 PM 39.2 °F 33.0 °F 35.6 °F 87% 30.21 in 5.0 mi South 9.2 mph - N/A   Mist
12:55 PM 39.2 °F 33.0 °F 35.6 °F 87% 30.21 in 5.0 mi South 9.2 mph - N/A   Mist
1:01 PM 41.0 °F 35.2 °F 35.6 °F 81% 30.21 in 4.3 mi SSW 9.2 mph - N/A   Mist
1:05 PM 39.2 °F 33.0 °F 35.6 °F 87% 30.21 in 5.0 mi SSW 9.2 mph - N/A   Mist
1:18 PM 41.0 °F 35.2 °F 35.6 °F 81% 30.21 in 5.0 mi South 9.2 mph - N/A   Mist
1:25 PM 41.0 °F 34.7 °F 35.6 °F 81% 30.18 in 5.0 mi South 10.4 mph - N/A   Partly Cloudy
1:55 PM 41.0 °F 34.7 °F 35.6 °F 81% 30.18 in 5.6 mi South 10.4 mph - N/A   Mist
2:25 PM 41.0 °F 34.3 °F 35.6 °F 81% 30.18 in 5.6 mi South 11.5 mph - N/A   Partly Cloudy
2:55 PM 41.0 °F 34.7 °F 37.4 °F 87% 30.18 in 5.6 mi SSW 10.4 mph - N/A   Mist
3:25 PM 41.0 °F 36.4 °F 37.4 °F 87% 30.18 in 5.6 mi South 6.9 mph - N/A   Mist
3:55 PM 39.2 °F 35.0 °F 35.6 °F 87% 30.18 in 5.6 mi SSW 5.8 mph - N/A   Partly Cloudy
3:58 PM 39.2 °F 35.9 °F 35.6 °F 87% 30.18 in 5.6 mi South 4.6 mph - N/A   Partly Cloudy
4:25 PM 37.4 °F 34.9 °F 35.6 °F 93% 30.15 in 5.0 mi SSE 3.5 mph - N/A   Mist
4:40 PM 37.4 °F 33.8 °F 35.6 °F 93% 30.15 in 4.3 mi SE 4.6 mph - N/A   Mist
4:55 PM 39.2 °F 34.2 °F 35.6 °F 87% 30.15 in 3.7 mi SSE 6.9 mph - N/A   Mist
5:05 PM 37.4 °F 33.8 °F 33.8 °F 87% 30.15 in 5.0 mi SSE 4.6 mph - N/A   Mist
5:18 PM 37.4 °F 33.8 °F 33.8 °F 87% 30.15 in 5.6 mi South 4.6 mph - N/A   Mist
5:25 PM 35.6 °F 31.7 °F 33.8 °F 93% 30.15 in 5.0 mi SSE 4.6 mph - N/A   Partly Cloudy
5:46 PM 35.6 °F 31.7 °F 33.8 °F 93% 30.15 in 4.3 mi SSE 4.6 mph - N/A   Mist
5:55 PM 35.6 °F 32.8 °F 33.8 °F 93% 30.15 in 4.3 mi South 3.5 mph - N/A   Mist
6:25 PM 35.6 °F 31.7 °F 33.8 °F 93% 30.15 in 4.3 mi South 4.6 mph - N/A   Mist
6:55 PM 35.6 °F 30.7 °F 33.8 °F 93% 30.15 in 3.7 mi South 5.8 mph - N/A   Mist
7:25 PM 35.6 °F 31.7 °F 33.8 °F 93% 30.15 in 3.7 mi South 4.6 mph - N/A   Partly Cloudy
7:55 PM 33.8 °F 28.6 °F 32.0 °F 93% 30.15 in 3.7 mi South 5.8 mph - N/A   Partly Cloudy
8:25 PM 33.8 °F 27.7 °F 33.8 °F 100% 30.15 in 4.3 mi South 6.9 mph - N/A   Mist
8:35 PM 33.8 °F 27.7 °F 32.0 °F 93% 30.15 in 5.0 mi South 6.9 mph - N/A   Mist
8:37 PM 33.8 °F 27.7 °F 32.0 °F 93% 30.15 in 4.3 mi South 6.9 mph - N/A   Mist
8:55 PM 33.8 °F 27.7 °F 33.8 °F 100% 30.15 in 4.3 mi South 6.9 mph - N/A   Mist
8:59 PM 35.6 °F 29.9 °F 33.8 °F 93% 30.15 in 5.0 mi SSW 6.9 mph - N/A   Mist
9:09 PM 35.6 °F 29.2 °F 33.8 °F 93% 30.15 in 5.0 mi SSW 8.1 mph - N/A   Mist
9:25 PM 33.8 °F 27.0 °F 33.8 °F 100% 30.15 in 5.0 mi South 8.1 mph - N/A   Mist
9:55 PM 35.6 °F 29.9 °F 33.8 °F 93% 30.15 in 5.0 mi SSW 6.9 mph - N/A   Mostly Cloudy
10:04 PM 35.6 °F 28.6 °F 33.8 °F 93% 30.15 in 4.3 mi South 9.2 mph - N/A   Mostly Cloudy
10:25 PM 35.6 °F 28.6 °F 33.8 °F 93% 30.15 in 4.3 mi South 9.2 mph - N/A   Mostly Cloudy
10:30 PM 35.6 °F 28.6 °F 33.8 °F 93% 30.15 in 5.0 mi South 9.2 mph - N/A   Overcast
10:36 PM 35.6 °F 29.2 °F 33.8 °F 93% 30.15 in 4.3 mi South 8.1 mph - N/A   Mostly Cloudy
10:40 PM 35.6 °F 29.2 °F 33.8 °F 93% 30.15 in 4.3 mi SSW 8.1 mph - N/A   Mostly Cloudy
10:55 PM 35.6 °F 29.2 °F 33.8 °F 93% 30.15 in 4.3 mi SSW 8.1 mph - N/A   Overcast
11:05 PM 37.4 °F 30.3 °F 33.8 °F 87% 30.15 in 4.3 mi SSW 10.4 mph - N/A   Overcast
11:19 PM 37.4 °F 30.3 °F 35.6 °F 93% 30.15 in - SSW 10.4 mph - N/A   Overcast
11:25 PM 37.4 °F 30.3 °F 35.6 °F 93% 30.15 in 2.8 mi SSW 10.4 mph - N/A   Overcast
11:49 PM 37.4 °F 29.8 °F 35.6 °F 93% 30.15 in 2.2 mi SSW 11.5 mph - N/A   Overcast
11:55 PM 37.4 °F 29.3 °F 35.6 °F 93% 30.15 in - SSW 12.7 mph - N/A   Overcast